Regional Weather Roundup
Issued by NWS Charleston, SC

Home | Current Version | Previous Version | Text Only | Print | Product List | Glossary On
Versions: 1 2 3 4 5 6 7 8 9 10 11 12 13 14 15 16 17 18 19 20 21 22 23 24 25 26 27 28 29 30 31 32 33 34 35 36 37 38 39 40 41 42 43 44 45 46 47 48 49 50
394
ASUS42 KCHS 081727
RWRCHS

REGIONAL WEATHER ROUNDUP
NATIONAL WEATHER SERVICE CHARLESTON SC
1200 PM EST MON FEB 08 2016

NOTE: "FAIR" INDICATES FEW OR NO CLOUDS BELOW 12,000 FEET WITH NO
SIGNIFICANT WEATHER AND/OR OBSTRUCTIONS TO VISIBILITY.

NOT ALL STATIONS ARE QUALITY CONTROLLED BY THE NATIONAL
WEATHER SERVICE. USE DATA WITH CAUTION...ESPECIALLY
DEWPOINT OBSERVATIONS.

NOTICE: OBSERVATIONS FOR THE SAVANNAH-HILTON HEAD INTERNATIONAL AIRPORT
/KSAV/ HAVE BEEN TEMPORARILY REMOVED DUE TO AN ERRONEOUS TEMPERATURE
SENSOR. THE OBSERVATION WILL BE REINTRODUCED ONCE REPAIRS ARE COMPLETE.

SCZ027-030-031-034>040-042>050-081800-
...SOUTHEAST SOUTH CAROLINA...

CITY           SKY/WX    TMP DP  RH WIND       PRES   REMARKS
N CHARLESTON   MOSUNNY   59  27  29 SW9G20    29.85F
WATERFRONT PRK   N/A     55  32  41 VRB3      29.73F
MOUNT PLEASANT FAIR      57  32  38 W9        29.85F
JOHNS ISLAND   FAIR      59  34  38 SW10G18   29.84F
PINOPOLIS        N/A     54  36  50 SW8       29.78F
MONCKS CORNER  FAIR      54  28  37 SW14      29.82F
SUMMERVILLE    FAIR      59  32  36 SW10G16   29.84F
BEAUFORT MCAS  SUNNY     59  31  34 W15       29.87F
BEAUFORT ARPT  FAIR      57  34  41 SW7       29.86F
HILTON HEAD IS SUNNY     55  32  41 SW10G18   29.89F
WALTERBORO     SUNNY     59  30  33 W14       29.84F
ALLENDALE      FAIR      59  32  36 CALM      29.82F

...SOUTHERN MIDLANDS AND PEE DEE...

CITY           SKY/WX    TMP DP  RH WIND       PRES   REMARKS
GEORGETOWN     NOT AVBL
KINGSTREE      NOT AVBL
ORANGEBURG     SUNNY     56  30  37 SW13      29.82F
BARNWELL       FAIR      61  34  36 SW13G18   29.81F
AIKEN          FAIR      55  30  38 S13       29.80F
MANNING        FAIR      54  30  40 S7        29.81F
COLUMBIA       MOSUNNY   57  28  33 SW13      29.78F
SUMTER         SUNNY     56  30  36 SW10      29.77F
FLORENCE       SUNNY     54  28  36 SW12      29.80F
MYRTLE BEACH   SUNNY     54  36  50 S13       29.86F
N MYRTLE BEACH SUNNY     52  35  52 S14       29.83F

$$

GAZ063-065-086>088-099>101-113>116-118-119-134>141-150-081800-
...SOUTHEAST GEORGIA...

CITY           SKY/WX    TMP DP  RH WIND       PRES   REMARKS
SAVANNAH ARPT  SUNNY     60  29  30 W16G24    29.89F
HUNTER AAF     SUNNY     60  33  37 SW14G20   29.86F
FORT STEWART   SUNNY     60  31  34 SW15G23   29.87F
STATESBORO     SUNNY     62  21  20 W13G20    29.85F
SYLVANIA       SUNNY     60  37  42 W7        29.84F
CLAXTON        FAIR      60  36  41 S9G16     29.87F

...CSRA...CENTRAL AND FAR SOUTHEAST GEORGIA...

CITY           SKY/WX    TMP DP  RH WIND       PRES   REMARKS
THOMSON        SUNNY     58  37  45 SW7       29.82F
AUGUSTA-BUSH   SUNNY     59  31  34 S13       29.80F
AUGUSTA-DANIEL SUNNY     57  30  35 S10       29.80F
SWAINSBORO     FAIR      59  32  36 W13G18    29.85F
VIDALIA        SUNNY     59  34  38 SW15      29.86F
EASTMAN        FAIR      60  32  35 W9G16     29.86F
HAZLEHURST     FAIR      62  34  35 SW10G18   29.86F
ALMA           SUNNY     58  33  39 SW10G20   29.90F
WAYCROSS       SUNNY     63  36  37 W17       29.90F
JESUP          FAIR      61  34  36 W13G22    29.91F
BAXLEY         FAIR      61  32  33 W13       29.88F
BRUNSWICK      SUNNY     61  32  33 SW16G22   29.92F
SAINT SIMONS   SUNNY     58  32  37 SW13      29.93F

$$

SCZ027-028-034-036>038-045-046-048>050-GAZ119-141-081800-
...LAKE AND SUPPLEMENTAL COASTAL OBSERVATIONS...

STATION/POSITION TIME  TEMP    WIND        PRES    WAVE   SWELL
                       AIR SEA DIR/SP/G            HT/PER HT/PER/DIR
                 (UTC) (F)     (DEG/KT/KT) (MB)    (FT/S) (FT/S/D)
WINYAH BAY       1600   47     180/  5     1011.0F
LAKE MURRAY      1600   51     230/  9/ 13 1009.1F
ACE BASIN NERRS  1645   55     230/  3     1012.0S
FORT PULASKI     1700   56 52  220/  7/ 12 1012.1F
SAPELO ISLAND    1700   57     230/ 14     1013.0F

$$

ANZ835-935-AMZ111-154-330-350-352-354-370-450-454-472-081800-
...C-MAN AND BUOY OBSERVATIONS...

STATION/POSITION TIME  TEMP    WIND        PRES    WAVE   SWELL
                       AIR SEA DIR/SP/G            HT/PER HT/PER/DIR
                 (UTC) (F)     (DEG/KT/KT) (MB)    (FT/S) (FT/S/D)
BUOY 41004       1650   56 65  250/ 16/ 19 1011.3F   6/15   5/15
BUOY 41008       1650   52 55  220/ 16/ 19 1013.5F   3/ 4   2/310/16
FOLLY BEACH CMAN 1700   52     220/ 14/ 16 1011.4F
CAPERS NEARSHORE 1608   49     240/ 10/ 12 1011.5F
FRIPP NEARSHORE  1600   51     240/ 16/ 17 1012.3F


STATION/POSITION TIME  TEMP    WIND        PRES    WAVE   SWELL
                       AIR SEA DIR/SP/G            HT/PER HT/PER/DIR
                 (UTC) (F)     (DEG/KT/KT) (MB)    (FT/S) (FT/S/D)
5E ST. MARYS GA  1651      55                N/A     3/15   2/100/15
FRYING PAN BUOY  1700   51 60   CALM  /  4 1011.0F
BUOY 41025       1650   43 53  310/ 14/ 17 1009.1R  19/16  18/ 90/16
CAPE LOOKOUT NC  NOT AVBL
BUOY 41002       1650   59 69  290/ 21/ 25   N/A    17/10  15/320/10
BUOY 41010       1620   63 73              1016.8F
ST AUGUSTINE FL  1700   59 57  240/ 12/ 17 1016.4F


$$




USA.gov is the U.S. government's official web portal to all federal, state and local government web resources and services.